Time,TemperatureF,DewpointF,PressureIn,WindDirection,WindDirectionDegrees,WindSpeedMPH,WindSpeedGustMPH,Humidity,HourlyPrecipIn,Conditions,Clouds,dailyrainin,SoftwareType,DateUTC
2013-05-28 00:01:00,77.4,70.4,30.09,ENE,74,9.2,9.2,79,0.00,CLR,,0.00,WeatherDisplay:10.37,2013-05-28 04:01:00,
2013-05-28 00:06:00,77.3,69.9,30.09,East,86,11.5,11.5,78,0.00,CLR,,0.00,WeatherDisplay:10.37,2013-05-28 04:06:00,
2013-05-28 00:11:00,77.3,70.3,30.09,ESE,109,7.0,7.0,79,0.00,CLR,,0.00,WeatherDisplay:10.37,2013-05-28 04:11:00,
2013-05-28 00:16:00,77.3,70.3,30.09,East,101,11.5,11.5,79,0.00,CLR,,0.00,WeatherDisplay:10.37,2013-05-28 04:16:00,
2013-05-28 00:21:00,77.4,70.4,30.08,East,98,10.4,10.4,79,0.00,CLR,,0.00,WeatherDisplay:10.37,2013-05-28 04:21:00,
2013-05-28 00:26:00,77.4,70.4,30.08,ENE,63,12.7,12.7,79,0.00,CLR,,0.00,WeatherDisplay:10.37,2013-05-28 04:26:00,
2013-05-28 00:31:00,77.5,70.8,30.08,East,99,12.7,12.7,80,0.00,CLR,,0.00,WeatherDisplay:10.37,2013-05-28 04:31:00,
2013-05-28 00:36:00,77.5,70.8,30.08,ESE,122,16.1,16.1,80,0.00,CLR,,0.00,WeatherDisplay:10.37,2013-05-28 04:36:00,
2013-05-28 00:41:00,77.4,70.4,30.08,NE,54,10.4,10.4,79,0.00,CLR,,0.00,WeatherDisplay:10.37,2013-05-28 04:41:00,
2013-05-28 00:46:00,77.4,70.4,30.08,East,99,15.0,15.0,79,0.00,CLR,,0.00,WeatherDisplay:10.37,2013-05-28 04:46:00,
2013-05-28 00:51:00,77.5,70.5,30.08,East,92,17.0,17.0,79,0.00,CLR,,0.00,WeatherDisplay:10.37,2013-05-28 04:51:00,
2013-05-28 00:56:00,77.5,70.8,30.08,SE,130,15.0,15.0,80,0.00,CLR,,0.00,WeatherDisplay:10.37,2013-05-28 04:56:00,
2013-05-28 01:01:00,77.4,70.4,30.08,East,98,15.0,15.0,79,0.00,CLR,,0.00,WeatherDisplay:10.37,2013-05-28 05:01:00,
2013-05-28 01:06:00,77.5,70.5,30.08,ESE,115,15.0,15.0,79,0.00,CLR,,0.00,WeatherDisplay:10.37,2013-05-28 05:06:00,
2013-05-28 01:11:00,77.4,70.7,30.08,East,98,11.5,11.5,80,0.00,CLR,,0.00,WeatherDisplay:10.37,2013-05-28 05:11:00,
2013-05-28 01:16:00,77.4,70.7,30.08,East,86,13.8,13.8,80,0.00,CLR,,0.00,WeatherDisplay:10.37,2013-05-28 05:16:00,
2013-05-28 01:21:00,77.4,70.4,30.08,East,80,16.1,16.1,79,0.00,CLR,,0.00,WeatherDisplay:10.37,2013-05-28 05:21:00,
2013-05-28 01:26:00,77.4,70.7,30.07,East,81,11.5,11.5,80,0.00,CLR,,0.00,WeatherDisplay:10.37,2013-05-28 05:26:00,
2013-05-28 01:31:00,77.4,70.7,30.07,ENE,69,10.4,10.4,80,0.00,CLR,,0.00,WeatherDisplay:10.37,2013-05-28 05:31:00,
2013-05-28 01:36:00,77.4,70.7,30.07,SE,132,9.2,9.2,80,0.00,CLR,,0.00,WeatherDisplay:10.37,2013-05-28 05:36:00,
2013-05-28 01:41:00,77.3,70.6,30.08,East,90,14.0,14.0,80,0.00,CLR,,0.00,WeatherDisplay:10.37,2013-05-28 05:41:00,
2013-05-28 01:46:00,77.4,70.4,30.08,ESE,122,12.7,12.7,79,0.00,CLR,,0.00,WeatherDisplay:10.37,2013-05-28 05:46:00,
2013-05-28 01:51:00,77.4,70.4,30.07,ESE,109,11.5,11.5,79,0.00,CLR,,0.00,WeatherDisplay:10.37,2013-05-28 05:51:00,
2013-05-28 01:56:00,77.4,70.4,30.07,ESE,103,16.1,16.1,79,0.00,CLR,,0.00,WeatherDisplay:10.37,2013-05-28 05:56:00,
2013-05-28 02:01:00,77.3,70.6,30.07,East,88,13.8,13.8,80,0.00,CLR,,0.00,WeatherDisplay:10.37,2013-05-28 06:01:00,
2013-05-28 02:06:00,77.3,71.0,30.07,East,97,19.6,19.6,81,0.00,CLR,,0.00,WeatherDisplay:10.37,2013-05-28 06:06:00,
2013-05-28 02:11:00,75.7,71.2,30.07,East,86,13.8,13.8,86,0.00,CLR,,0.00,WeatherDisplay:10.37,2013-05-28 06:11:00,
2013-05-28 02:16:00,74.9,71.4,30.07,ESE,109,11.5,11.5,89,0.01,RA,,0.01,WeatherDisplay:10.37,2013-05-28 06:16:00,
2013-05-28 02:21:00,74.8,71.7,30.06,East,100,12.7,12.7,90,0.01,RA,,0.01,WeatherDisplay:10.37,2013-05-28 06:21:00,
2013-05-28 02:26:00,74.7,71.2,30.06,ENE,61,13.8,13.8,89,0.01,,,0.01,WeatherDisplay:10.37,2013-05-28 06:26:00,
2013-05-28 02:31:00,74.6,71.1,30.06,East,94,11.5,11.5,89,0.01,CLR,,0.01,WeatherDisplay:10.37,2013-05-28 06:31:00,
2013-05-28 02:36:00,74.7,71.2,30.06,East,79,11.5,11.5,89,0.01,CLR,,0.01,WeatherDisplay:10.37,2013-05-28 06:36:00,
2013-05-28 02:41:00,74.8,71.3,30.06,ENE,76,10.4,10.4,89,0.01,CLR,,0.01,WeatherDisplay:10.37,2013-05-28 06:41:00,
2013-05-28 02:46:00,74.8,71.3,30.06,ESE,107,6.9,6.9,89,0.01,CLR,,0.01,WeatherDisplay:10.37,2013-05-28 06:46:00,
2013-05-28 02:51:00,74.9,71.4,30.05,East,97,9.2,9.2,89,0.01,CLR,,0.01,WeatherDisplay:10.37,2013-05-28 06:51:00,
2013-05-28 02:56:00,75.1,71.0,30.05,East,79,6.9,6.9,87,0.01,CLR,,0.01,WeatherDisplay:10.37,2013-05-28 06:56:00,
2013-05-28 03:01:00,75.5,71.0,30.05,ENE,76,9.2,9.2,86,0.01,CLR,,0.01,WeatherDisplay:10.37,2013-05-28 07:01:00,
2013-05-28 03:06:00,75.6,70.8,30.04,ENE,74,9.2,9.2,85,0.01,CLR,,0.01,WeatherDisplay:10.37,2013-05-28 07:06:00,
2013-05-28 03:11:00,75.7,70.5,30.04,ESE,105,11.5,11.5,84,0.01,CLR,,0.01,WeatherDisplay:10.37,2013-05-28 07:11:00,
2013-05-28 03:16:00,76.0,70.8,30.04,East,100,15.0,15.0,84,0.00,CLR,,0.01,WeatherDisplay:10.37,2013-05-28 07:16:00,
2013-05-28 03:21:00,76.1,70.9,30.04,ENE,73,11.5,11.5,84,0.00,CLR,,0.01,WeatherDisplay:10.37,2013-05-28 07:21:00,
2013-05-28 03:26:00,76.2,71.0,30.04,East,95,11.0,11.0,84,0.00,CLR,,0.01,WeatherDisplay:10.37,2013-05-28 07:26:00,
2013-05-28 03:31:00,76.2,71.0,30.04,East,94,10.0,10.0,84,0.00,CLR,,0.01,WeatherDisplay:10.37,2013-05-28 07:31:00,
2013-05-28 03:36:00,76.2,71.0,30.04,ENE,76,9.2,9.2,84,0.00,CLR,,0.01,WeatherDisplay:10.37,2013-05-28 07:36:00,
2013-05-28 03:41:00,76.2,71.0,30.04,East,86,8.1,8.1,84,0.00,CLR,,0.01,WeatherDisplay:10.37,2013-05-28 07:41:00,
2013-05-28 03:46:00,76.5,71.3,30.04,ESE,112,12.7,12.7,84,0.00,CLR,,0.01,WeatherDisplay:10.37,2013-05-28 07:46:00,
2013-05-28 03:51:00,76.6,71.0,30.03,East,87,15.0,15.0,83,0.00,CLR,,0.01,WeatherDisplay:10.37,2013-05-28 07:51:00,
2013-05-28 03:56:00,76.7,70.8,30.03,ESE,102,12.7,12.7,82,0.00,CLR,,0.01,WeatherDisplay:10.37,2013-05-28 07:56:00,
2013-05-28 04:01:00,76.8,70.9,30.03,East,92,11.5,11.5,82,0.00,CLR,,0.01,WeatherDisplay:10.37,2013-05-28 08:01:00,
2013-05-28 04:06:00,76.9,71.0,30.03,ENE,74,14.0,14.0,82,0.00,CLR,,0.01,WeatherDisplay:10.37,2013-05-28 08:06:00,
2013-05-28 04:11:00,76.9,71.3,30.03,ESE,118,9.2,9.2,83,0.00,CLR,,0.01,WeatherDisplay:10.37,2013-05-28 08:11:00,
2013-05-28 04:16:00,76.7,71.1,30.03,ENE,64,11.5,11.5,83,0.00,CLR,,0.01,WeatherDisplay:10.37,2013-05-28 08:16:00,
2013-05-28 04:21:00,76.7,71.1,30.03,East,98,11.5,11.5,83,0.00,CLR,,0.01,WeatherDisplay:10.37,2013-05-28 08:21:00,
2013-05-28 04:26:00,76.7,71.1,30.03,SE,144,13.8,13.8,83,0.00,CLR,,0.01,WeatherDisplay:10.37,2013-05-28 08:26:00,
2013-05-28 04:31:00,76.9,71.0,30.03,ESE,107,17.3,17.3,82,0.00,CLR,,0.01,WeatherDisplay:10.37,2013-05-28 08:31:00,
2013-05-28 04:36:00,76.9,71.0,30.03,ESE,118,11.0,11.0,82,0.00,CLR,,0.01,WeatherDisplay:10.37,2013-05-28 08:36:00,
2013-05-28 04:41:00,76.8,70.9,30.03,ESE,110,13.8,13.8,82,0.00,CLR,,0.01,WeatherDisplay:10.37,2013-05-28 08:41:00,
2013-05-28 04:46:00,76.8,70.9,30.03,East,92,11.5,11.5,82,0.00,CLR,,0.01,WeatherDisplay:10.37,2013-05-28 08:46:00,
2013-05-28 04:51:00,76.8,70.9,30.02,East,91,11.5,11.5,82,0.00,CLR,,0.01,WeatherDisplay:10.37,2013-05-28 08:51:00,
2013-05-28 04:52:00,76.8,70.9,30.02,East,88,11.5,11.5,82,0.00,CLR,,0.01,WeatherDisplay:10.37,2013-05-28 08:52:00,
2013-05-28 04:57:00,76.8,71.2,30.03,ENE,71,15.0,15.0,83,0.00,CLR,,0.01,WeatherDisplay:10.37,2013-05-28 08:57:00,
2013-05-28 05:02:00,76.8,70.9,30.02,East,88,15.0,15.0,82,0.00,CLR,,0.01,WeatherDisplay:10.37,2013-05-28 09:02:00,
2013-05-28 05:07:00,76.9,71.0,30.02,East,97,11.5,11.5,82,0.00,CLR,,0.01,WeatherDisplay:10.37,2013-05-28 09:07:00,
2013-05-28 05:12:00,76.9,71.0,30.02,East,90,11.5,11.5,82,0.00,CLR,,0.01,WeatherDisplay:10.37,2013-05-28 09:12:00,
2013-05-28 05:17:00,76.8,70.9,30.02,ESE,111,16.1,16.1,82,0.00,CLR,,0.01,WeatherDisplay:10.37,2013-05-28 09:17:00,
2013-05-28 05:22:00,76.9,71.0,30.02,East,86,15.0,15.0,82,0.00,CLR,,0.01,WeatherDisplay:10.37,2013-05-28 09:22:00,
2013-05-28 05:27:00,76.9,71.0,30.02,East,84,13.0,13.0,82,0.00,CLR,,0.01,WeatherDisplay:10.37,2013-05-28 09:27:00,
2013-05-28 05:32:00,76.9,71.0,30.02,East,86,16.1,16.1,82,0.00,CLR,,0.01,WeatherDisplay:10.37,2013-05-28 09:32:00,
2013-05-28 05:37:00,76.9,71.0,30.02,SE,125,16.1,16.1,82,0.00,CLR,,0.01,WeatherDisplay:10.37,2013-05-28 09:37:00,
2013-05-28 05:42:00,76.9,71.0,30.02,SSE,148,15.0,15.0,82,0.00,CLR,,0.01,WeatherDisplay:10.37,2013-05-28 09:42:00,
2013-05-28 05:47:00,76.9,71.0,30.02,NE,41,12.7,12.7,82,0.00,CLR,,0.01,WeatherDisplay:10.37,2013-05-28 09:47:00,
2013-05-28 05:52:00,76.9,71.0,30.02,SE,130,16.1,16.1,82,0.00,CLR,,0.01,WeatherDisplay:10.37,2013-05-28 09:52:00,
2013-05-28 05:57:00,77.0,71.1,30.03,ESE,119,17.3,17.3,82,0.00,CLR,,0.01,WeatherDisplay:10.37,2013-05-28 09:57:00,
2013-05-28 06:02:00,77.0,71.1,30.03,SE,130,11.5,11.5,82,0.00,CLR,,0.01,WeatherDisplay:10.37,2013-05-28 10:02:00,
2013-05-28 06:07:00,76.9,71.3,30.03,ESE,103,13.0,13.0,83,0.00,CLR,,0.01,WeatherDisplay:10.37,2013-05-28 10:07:00,
2013-05-28 06:12:00,77.0,71.1,30.03,ESE,105,17.3,17.3,82,0.00,CLR,,0.01,WeatherDisplay:10.37,2013-05-28 10:12:00,
2013-05-28 06:17:00,77.0,71.1,30.03,SE,129,12.0,12.0,82,0.00,CLR,,0.01,WeatherDisplay:10.37,2013-05-28 10:17:00,
2013-05-28 06:22:00,77.0,71.1,30.03,SE,126,14.0,14.0,82,0.00,CLR,,0.01,WeatherDisplay:10.37,2013-05-28 10:22:00,
2013-05-28 06:27:00,77.0,71.1,30.04,East,90,11.5,11.5,82,0.00,CLR,,0.01,WeatherDisplay:10.37,2013-05-28 10:27:00,
2013-05-28 06:32:00,76.9,71.3,30.04,ESE,103,11.5,11.5,83,0.00,CLR,,0.01,WeatherDisplay:10.37,2013-05-28 10:32:00,
2013-05-28 06:37:00,77.0,71.1,30.04,ENE,75,18.4,18.4,82,0.00,CLR,,0.01,WeatherDisplay:10.37,2013-05-28 10:37:00,
2013-05-28 06:42:00,77.0,71.1,30.04,SSE,149,11.5,11.5,82,0.00,CLR,,0.01,WeatherDisplay:10.37,2013-05-28 10:42:00,
2013-05-28 06:47:00,77.0,71.1,30.04,East,82,16.0,16.0,82,0.00,CLR,,0.01,WeatherDisplay:10.37,2013-05-28 10:47:00,
2013-05-28 06:52:00,77.0,71.4,30.04,East,79,11.5,11.5,83,0.00,CLR,,0.01,WeatherDisplay:10.37,2013-05-28 10:52:00,
2013-05-28 06:57:00,77.0,71.1,30.05,ENE,63,16.1,16.1,82,0.00,CLR,,0.01,WeatherDisplay:10.37,2013-05-28 10:57:00,
2013-05-28 07:02:00,77.1,71.2,30.05,East,83,11.5,11.5,82,0.00,CLR,,0.01,WeatherDisplay:10.37,2013-05-28 11:02:00,
2013-05-28 07:07:00,77.2,71.3,30.05,SE,128,12.7,12.7,82,0.00,CLR,,0.01,WeatherDisplay:10.37,2013-05-28 11:07:00,
2013-05-28 07:12:00,77.2,71.3,30.05,SE,124,15.0,15.0,82,0.00,CLR,,0.01,WeatherDisplay:10.37,2013-05-28 11:12:00,
2013-05-28 07:17:00,77.4,71.5,30.05,ESE,103,13.8,13.8,82,0.00,CLR,,0.01,WeatherDisplay:10.37,2013-05-28 11:17:00,
2013-05-28 07:22:00,77.4,71.5,30.05,East,80,17.3,17.3,82,0.00,CLR,,0.01,WeatherDisplay:10.37,2013-05-28 11:22:00,
2013-05-28 07:27:00,77.4,71.5,30.05,ESE,120,16.1,16.1,82,0.00,CLR,,0.01,WeatherDisplay:10.37,2013-05-28 11:27:00,
2013-05-28 07:32:00,77.5,71.6,30.05,ESE,119,16.1,16.1,82,0.00,CLR,,0.01,WeatherDisplay:10.37,2013-05-28 11:32:00,
2013-05-28 07:37:00,77.6,71.7,30.05,ESE,111,12.7,12.7,82,0.00,CLR,,0.01,WeatherDisplay:10.37,2013-05-28 11:37:00,
2013-05-28 07:42:00,77.6,71.7,30.05,ESE,107,16.1,16.1,82,0.00,CLR,,0.01,WeatherDisplay:10.37,2013-05-28 11:42:00,
2013-05-28 07:47:00,77.6,71.7,30.05,East,101,15.0,15.0,82,0.00,CLR,,0.01,WeatherDisplay:10.37,2013-05-28 11:47:00,
2013-05-28 07:52:00,77.7,71.8,30.05,East,80,17.3,17.3,82,0.00,CLR,,0.01,WeatherDisplay:10.37,2013-05-28 11:52:00,
2013-05-28 07:57:00,77.7,71.8,30.05,ENE,65,15.0,15.0,82,0.00,CLR,,0.01,WeatherDisplay:10.37,2013-05-28 11:57:00,
2013-05-28 08:02:00,77.8,71.9,30.05,ENE,78,18.4,18.4,82,0.00,CLR,,0.01,WeatherDisplay:10.37,2013-05-28 12:02:00,
2013-05-28 08:07:00,78.0,72.1,30.05,ESE,121,15.0,15.0,82,0.00,CLR,,0.01,WeatherDisplay:10.37,2013-05-28 12:07:00,
2013-05-28 08:12:00,78.4,72.4,30.06,East,96,16.0,16.0,82,0.00,CLR,,0.01,WeatherDisplay:10.37,2013-05-28 12:12:00,
2013-05-28 08:17:00,78.5,72.2,30.06,SE,140,15.0,15.0,81,0.00,CLR,,0.01,WeatherDisplay:10.37,2013-05-28 12:17:00,
2013-05-28 08:22:00,78.6,71.9,30.06,East,88,19.6,19.6,80,0.00,CLR,,0.01,WeatherDisplay:10.37,2013-05-28 12:22:00,
2013-05-28 08:27:00,78.8,72.1,30.06,ESE,102,12.0,12.0,80,0.00,CLR,,0.01,WeatherDisplay:10.37,2013-05-28 12:27:00,
2013-05-28 08:32:00,78.8,71.7,30.07,ESE,109,19.6,19.6,79,0.00,CLR,,0.01,WeatherDisplay:10.37,2013-05-28 12:32:00,
2013-05-28 08:37:00,78.5,71.8,30.07,East,98,13.8,13.8,80,0.00,CLR,,0.01,WeatherDisplay:10.37,2013-05-28 12:37:00,
2013-05-28 08:42:00,78.6,72.3,30.07,ENE,67,13.8,13.8,81,0.00,CLR,,0.01,WeatherDisplay:10.37,2013-05-28 12:42:00,
2013-05-28 08:47:00,78.7,72.0,30.07,ENE,74,16.1,16.1,80,0.00,CLR,,0.01,WeatherDisplay:10.37,2013-05-28 12:47:00,
2013-05-28 08:52:00,78.9,72.2,30.07,ESE,117,11.5,11.5,80,0.00,CLR,,0.01,WeatherDisplay:10.37,2013-05-28 12:52:00,
2013-05-28 08:57:00,79.1,72.4,30.07,ESE,109,17.0,17.0,80,0.00,CLR,,0.01,WeatherDisplay:10.37,2013-05-28 12:57:00,
2013-05-28 09:02:00,79.2,72.5,30.08,ESE,109,17.0,17.0,80,0.00,CLR,,0.01,WeatherDisplay:10.37,2013-05-28 13:02:00,
2013-05-28 09:07:00,79.1,72.0,30.07,ESE,102,18.4,18.4,79,0.00,CLR,,0.01,WeatherDisplay:10.37,2013-05-28 13:07:00,
2013-05-28 09:12:00,79.1,72.4,30.07,ESE,120,15.0,15.0,80,0.00,CLR,,0.01,WeatherDisplay:10.37,2013-05-28 13:12:00,
2013-05-28 09:17:00,79.2,72.5,30.07,East,101,18.4,18.4,80,0.00,CLR,,0.01,WeatherDisplay:10.37,2013-05-28 13:17:00,
2013-05-28 09:22:00,79.4,72.3,30.08,East,81,18.4,18.4,79,0.00,CLR,,0.01,WeatherDisplay:10.37,2013-05-28 13:22:00,
2013-05-28 09:27:00,79.4,72.7,30.08,ENE,75,15.0,15.0,80,0.00,CLR,,0.01,WeatherDisplay:10.37,2013-05-28 13:27:00,
2013-05-28 09:32:00,79.4,72.3,30.08,ESE,120,18.4,18.4,79,0.00,CLR,,0.01,WeatherDisplay:10.37,2013-05-28 13:32:00,
2013-05-28 09:37:00,79.2,72.5,30.08,East,80,19.6,19.6,80,0.00,CLR,,0.01,WeatherDisplay:10.37,2013-05-28 13:37:00,
2013-05-28 09:42:00,79.2,72.5,30.08,ESE,119,15.0,15.0,80,0.00,CLR,,0.01,WeatherDisplay:10.37,2013-05-28 13:42:00,
2013-05-28 09:47:00,79.3,73.0,30.08,East,85,11.5,11.5,81,0.00,CLR,,0.01,WeatherDisplay:10.37,2013-05-28 13:47:00,
2013-05-28 09:52:00,79.4,72.7,30.08,SE,128,16.1,16.1,80,0.00,CLR,,0.01,WeatherDisplay:10.37,2013-05-28 13:52:00,
2013-05-28 09:57:00,79.4,72.7,30.08,ESE,103,19.6,19.6,80,0.00,CLR,,0.01,WeatherDisplay:10.37,2013-05-28 13:57:00,
2013-05-28 10:02:00,79.5,72.8,30.08,ESE,104,19.6,19.6,80,0.00,CLR,,0.01,WeatherDisplay:10.37,2013-05-28 14:02:00,
2013-05-28 10:07:00,79.4,72.7,30.08,ESE,102,17.0,17.0,80,0.00,CLR,,0.01,WeatherDisplay:10.37,2013-05-28 14:07:00,
2013-05-28 10:12:00,79.4,72.7,30.07,ESE,103,18.4,18.4,80,0.00,CLR,,0.01,WeatherDisplay:10.37,2013-05-28 14:12:00,
2013-05-28 10:17:00,79.4,72.7,30.07,East,92,21.9,21.9,80,0.00,CLR,,0.01,WeatherDisplay:10.37,2013-05-28 14:17:00,
2013-05-28 10:22:00,79.3,73.0,30.07,ESE,115,10.4,10.4,81,0.00,CLR,,0.01,WeatherDisplay:10.37,2013-05-28 14:22:00,
2013-05-28 10:27:00,79.5,73.2,30.07,ENE,78,14.0,14.0,81,0.00,CLR,,0.01,WeatherDisplay:10.37,2013-05-28 14:27:00,
2013-05-28 10:32:00,79.5,73.2,30.08,ESE,107,16.1,16.1,81,0.00,CLR,,0.01,WeatherDisplay:10.37,2013-05-28 14:32:00,
2013-05-28 10:37:00,79.6,73.3,30.08,East,91,18.4,18.4,81,0.00,CLR,,0.01,WeatherDisplay:10.37,2013-05-28 14:37:00,
2013-05-28 10:42:00,79.7,73.3,30.07,East,85,14.0,14.0,81,0.00,CLR,,0.01,WeatherDisplay:10.37,2013-05-28 14:42:00,
2013-05-28 10:47:00,79.6,73.3,30.07,East,98,15.0,15.0,81,0.00,CLR,,0.01,WeatherDisplay:10.37,2013-05-28 14:47:00,
2013-05-28 10:52:00,79.0,71.6,30.08,ESE,117,18.4,18.4,78,0.00,CLR,,0.01,WeatherDisplay:10.37,2013-05-28 14:52:00,
2013-05-28 10:57:00,77.6,71.3,30.08,SE,130,17.3,17.3,81,0.00,CLR,,0.01,WeatherDisplay:10.37,2013-05-28 14:57:00,
2013-05-28 11:02:00,76.1,71.6,30.08,SE,146,12.0,12.0,86,0.01,RA,,0.02,WeatherDisplay:10.37,2013-05-28 15:02:00,
2013-05-28 11:07:00,75.4,71.9,30.08,SE,145,13.8,13.8,89,0.02,RA,,0.03,WeatherDisplay:10.37,2013-05-28 15:07:00,
2013-05-28 11:12:00,75.5,72.7,30.08,SE,130,11.5,11.5,91,0.02,RA,,0.03,WeatherDisplay:10.37,2013-05-28 15:12:00,
2013-05-28 11:17:00,75.7,72.6,30.08,SE,126,15.0,15.0,90,0.02,CLR,,0.03,WeatherDisplay:10.37,2013-05-28 15:17:00,
2013-05-28 11:22:00,76.1,72.6,30.08,SE,134,11.5,11.5,89,0.02,CLR,,0.03,WeatherDisplay:10.37,2013-05-28 15:22:00,
2013-05-28 11:27:00,76.2,72.0,30.08,SSE,153,12.7,12.7,87,0.02,CLR,,0.03,WeatherDisplay:10.37,2013-05-28 15:27:00,
2013-05-28 11:32:00,76.3,72.1,30.08,South,169,11.5,11.5,87,0.02,CLR,,0.03,WeatherDisplay:10.37,2013-05-28 15:32:00,
2013-05-28 11:38:00,76.4,71.9,30.08,SE,144,12.7,12.7,86,0.02,CLR,,0.03,WeatherDisplay:10.37,2013-05-28 15:38:00,
2013-05-28 11:43:00,76.7,71.8,30.08,SSE,162,11.5,11.5,85,0.02,CLR,,0.03,WeatherDisplay:10.37,2013-05-28 15:43:00,
2013-05-28 11:48:00,76.9,72.0,30.08,ESE,121,12.7,12.7,85,0.02,CLR,,0.03,WeatherDisplay:10.37,2013-05-28 15:48:00,
2013-05-28 11:53:00,77.3,72.1,30.08,SE,125,12.7,12.7,84,0.02,CLR,,0.03,WeatherDisplay:10.37,2013-05-28 15:53:00,
2013-05-28 11:58:00,77.5,71.6,30.08,East,86,15.0,15.0,82,0.02,CLR,,0.03,WeatherDisplay:10.37,2013-05-28 15:58:00,
2013-05-28 12:03:00,77.7,71.4,30.08,SSE,157,18.4,18.4,81,0.01,CLR,,0.03,WeatherDisplay:10.37,2013-05-28 16:03:00,
2013-05-28 12:08:00,77.9,71.6,30.08,SE,133,12.0,12.0,81,0.00,CLR,,0.03,WeatherDisplay:10.37,2013-05-28 16:08:00,
2013-05-28 12:13:00,78.4,72.4,30.08,SE,143,11.5,11.5,82,0.00,CLR,,0.03,WeatherDisplay:10.37,2013-05-28 16:13:00,
2013-05-28 12:18:00,78.8,72.5,30.08,ESE,117,17.3,17.3,81,0.00,CLR,,0.03,WeatherDisplay:10.37,2013-05-28 16:18:00,
2013-05-28 12:23:00,78.5,72.2,30.08,SSE,158,17.3,17.3,81,0.00,CLR,,0.03,WeatherDisplay:10.37,2013-05-28 16:23:00,
2013-05-28 12:28:00,78.9,72.6,30.08,East,101,16.1,16.1,81,0.00,CLR,,0.03,WeatherDisplay:10.37,2013-05-28 16:28:00,
2013-05-28 12:33:00,79.0,72.7,30.07,ESE,111,15.0,15.0,81,0.00,CLR,,0.03,WeatherDisplay:10.37,2013-05-28 16:33:00,
2013-05-28 12:38:00,78.6,72.6,30.07,ESE,103,16.0,16.0,82,0.00,CLR,,0.03,WeatherDisplay:10.37,2013-05-28 16:38:00,
2013-05-28 12:43:00,78.7,72.7,30.07,ESE,112,12.7,12.7,82,0.00,CLR,,0.03,WeatherDisplay:10.37,2013-05-28 16:43:00,
2013-05-28 12:48:00,79.3,73.0,30.07,SE,134,12.0,12.0,81,0.00,CLR,,0.03,WeatherDisplay:10.37,2013-05-28 16:48:00,
2013-05-28 12:53:00,80.0,72.9,30.07,ESE,119,15.0,15.0,79,0.00,CLR,,0.03,WeatherDisplay:10.37,2013-05-28 16:53:00,
2013-05-28 12:58:00,80.0,73.3,30.07,ENE,59,11.5,11.5,80,0.00,CLR,,0.03,WeatherDisplay:10.37,2013-05-28 16:58:00,
2013-05-28 13:03:00,79.8,72.3,30.08,East,86,10.4,10.4,78,0.00,CLR,,0.03,WeatherDisplay:10.37,2013-05-28 17:03:00,
2013-05-28 13:08:00,80.0,71.8,30.07,East,89,16.1,16.1,76,0.00,CLR,,0.03,WeatherDisplay:10.37,2013-05-28 17:08:00,
2013-05-28 13:13:00,79.6,71.0,30.07,East,88,15.0,15.0,75,0.00,CLR,,0.03,WeatherDisplay:10.37,2013-05-28 17:13:00,
2013-05-28 13:18:00,79.6,70.6,30.07,East,101,17.3,17.3,74,0.00,CLR,,0.03,WeatherDisplay:10.37,2013-05-28 17:18:00,
2013-05-28 13:23:00,79.5,70.9,30.07,SE,130,13.8,13.8,75,0.00,CLR,,0.03,WeatherDisplay:10.37,2013-05-28 17:23:00,
2013-05-28 13:28:00,80.0,71.8,30.07,ESE,107,11.5,11.5,76,0.00,CLR,,0.03,WeatherDisplay:10.37,2013-05-28 17:28:00,
2013-05-28 13:33:00,80.3,71.3,30.07,East,92,13.8,13.8,74,0.00,CLR,,0.03,WeatherDisplay:10.37,2013-05-28 17:33:00,
2013-05-28 13:38:00,80.3,72.0,30.07,SE,127,11.0,11.0,76,0.00,CLR,,0.03,WeatherDisplay:10.37,2013-05-28 17:38:00,
2013-05-28 13:43:00,80.5,72.2,30.07,East,90,12.7,12.7,76,0.00,CLR,,0.03,WeatherDisplay:10.37,2013-05-28 17:43:00,
2013-05-28 13:48:00,80.3,72.8,30.07,ESE,122,15.0,15.0,78,0.00,CLR,,0.03,WeatherDisplay:10.37,2013-05-28 17:48:00,
2013-05-28 13:53:00,79.8,72.3,30.07,SE,144,16.1,16.1,78,0.00,CLR,,0.03,WeatherDisplay:10.37,2013-05-28 17:53:00,
2013-05-28 13:58:00,79.8,72.7,30.07,SSW,201,12.7,12.7,79,0.00,CLR,,0.03,WeatherDisplay:10.37,2013-05-28 17:58:00,
2013-05-28 14:03:00,80.1,73.4,30.06,ENE,69,13.8,13.8,80,0.00,CLR,,0.03,WeatherDisplay:10.37,2013-05-28 18:03:00,
2013-05-28 14:08:00,79.8,73.1,30.06,ESE,109,13.8,13.8,80,0.00,CLR,,0.03,WeatherDisplay:10.37,2013-05-28 18:08:00,
2013-05-28 14:13:00,79.6,73.3,30.06,ESE,111,15.0,15.0,81,0.00,CLR,,0.03,WeatherDisplay:10.37,2013-05-28 18:13:00,
2013-05-28 14:18:00,78.5,73.6,30.07,ESE,107,16.1,16.1,85,0.01,RA,,0.04,WeatherDisplay:10.37,2013-05-28 18:18:00,
2013-05-28 14:23:00,76.8,71.2,30.06,SSE,150,12.7,12.7,83,0.03,RA,,0.06,WeatherDisplay:10.37,2013-05-28 18:23:00,
2013-05-28 14:28:00,75.2,71.4,30.06,SE,127,11.5,11.5,88,0.13,RA,,0.16,WeatherDisplay:10.37,2013-05-28 18:28:00,
2013-05-28 14:33:00,75.1,72.6,30.06,SE,128,11.5,11.5,92,0.19,RA,,0.22,WeatherDisplay:10.37,2013-05-28 18:33:00,
2013-05-28 14:38:00,74.8,71.7,30.07,ENE,72,19.6,19.6,90,0.38,RA,,0.42,WeatherDisplay:10.37,2013-05-28 18:38:00,
2013-05-28 14:43:00,73.4,70.9,30.06,ENE,64,13.8,13.8,92,0.45,RA,,0.49,WeatherDisplay:10.37,2013-05-28 18:43:00,
2013-05-28 14:48:00,73.2,71.1,30.06,East,81,17.3,17.3,93,0.51,RA,,0.54,WeatherDisplay:10.37,2013-05-28 18:48:00,
2013-05-28 14:53:00,72.8,70.3,30.06,East,96,15.0,15.0,92,0.54,RA,,0.58,WeatherDisplay:10.37,2013-05-28 18:53:00,
2013-05-28 14:58:00,73.4,71.6,30.06,ESE,103,17.0,17.0,94,0.57,RA,,0.60,WeatherDisplay:10.37,2013-05-28 18:58:00,
2013-05-28 15:03:00,74.1,72.6,30.06,East,100,11.5,11.5,95,0.63,RA,,0.66,WeatherDisplay:10.37,2013-05-28 19:03:00,
2013-05-28 15:08:00,74.7,73.2,30.05,ESE,121,10.4,10.4,95,0.64,RA,,0.67,WeatherDisplay:10.37,2013-05-28 19:08:00,
2013-05-28 15:13:00,75.2,73.7,30.05,East,94,8.1,8.1,95,0.64,RA,,0.67,WeatherDisplay:10.37,2013-05-28 19:13:00,
2013-05-28 15:18:00,75.6,73.4,30.05,South,172,11.5,11.5,93,0.63,CLR,,0.67,WeatherDisplay:10.37,2013-05-28 19:18:00,
2013-05-28 15:23:00,76.0,73.2,30.05,SE,138,11.5,11.5,91,0.61,CLR,,0.67,WeatherDisplay:10.37,2013-05-28 19:23:00,
2013-05-28 15:28:00,76.0,73.2,30.05,ESE,115,6.9,6.9,91,0.51,CLR,,0.67,WeatherDisplay:10.37,2013-05-28 19:28:00,
2013-05-28 15:33:00,76.0,73.2,30.05,East,84,13.8,13.8,91,0.46,RA,,0.68,WeatherDisplay:10.37,2013-05-28 19:33:00,
2013-05-28 15:38:00,75.4,72.6,30.05,SE,125,10.4,10.4,91,0.28,RA,,0.69,WeatherDisplay:10.37,2013-05-28 19:38:00,
2013-05-28 15:43:00,75.1,72.6,30.05,East,88,21.9,21.9,92,0.30,RA,,0.78,WeatherDisplay:10.37,2013-05-28 19:43:00,
2013-05-28 15:48:00,74.5,72.3,30.05,East,89,6.9,6.9,93,0.31,RA,,0.85,WeatherDisplay:10.37,2013-05-28 19:48:00,
2013-05-28 15:53:00,74.0,71.5,30.05,SE,127,12.0,12.0,92,0.28,RA,,0.85,WeatherDisplay:10.37,2013-05-28 19:53:00,
2013-05-28 15:58:00,73.7,71.2,30.05,East,81,11.5,11.5,92,0.25,,,0.85,WeatherDisplay:10.37,2013-05-28 19:58:00,
2013-05-28 16:03:00,73.7,71.5,30.04,ENE,73,10.4,10.4,93,0.19,CLR,,0.85,WeatherDisplay:10.37,2013-05-28 20:03:00,
2013-05-28 16:08:00,73.8,72.0,30.05,East,100,12.7,12.7,94,0.18,CLR,,0.85,WeatherDisplay:10.37,2013-05-28 20:08:00,
2013-05-28 16:13:00,74.0,72.2,30.05,East,84,5.8,5.8,94,0.18,CLR,,0.85,WeatherDisplay:10.37,2013-05-28 20:13:00,
2013-05-28 16:18:00,74.1,72.3,30.05,East,101,10.4,10.4,94,0.18,CLR,,0.85,WeatherDisplay:10.37,2013-05-28 20:18:00,
2013-05-28 16:23:00,74.3,72.5,30.04,East,80,11.5,11.5,94,0.19,RA,,0.86,WeatherDisplay:10.37,2013-05-28 20:23:00,
2013-05-28 16:28:00,74.4,72.2,30.04,East,80,18.4,18.4,93,0.19,RA,,0.86,WeatherDisplay:10.37,2013-05-28 20:28:00,
2013-05-28 16:33:00,74.2,71.7,30.04,ESE,105,10.4,10.4,92,0.18,CLR,,0.86,WeatherDisplay:10.37,2013-05-28 20:33:00,
2013-05-28 16:38:00,74.2,71.7,30.04,East,85,10.4,10.4,92,0.17,CLR,,0.86,WeatherDisplay:10.37,2013-05-28 20:38:00,
2013-05-28 16:43:00,74.3,72.1,30.03,SE,133,6.9,6.9,93,0.08,CLR,,0.86,WeatherDisplay:10.37,2013-05-28 20:43:00,
2013-05-28 16:48:00,74.4,72.6,30.03,ESE,110,5.8,5.8,94,0.01,CLR,,0.86,WeatherDisplay:10.37,2013-05-28 20:48:00,
2013-05-28 16:53:00,74.7,72.9,30.03,ENE,77,4.0,4.0,94,0.01,CLR,,0.86,WeatherDisplay:10.37,2013-05-28 20:53:00,
2013-05-28 16:58:00,74.9,73.1,30.03,East,86,5.0,5.0,94,0.01,CLR,,0.86,WeatherDisplay:10.37,2013-05-28 20:58:00,
2013-05-28 17:03:00,75.1,73.3,30.03,East,80,5.8,5.8,94,0.01,CLR,,0.86,WeatherDisplay:10.37,2013-05-28 21:03:00,
2013-05-28 17:08:00,75.4,73.6,30.03,ENE,74,10.4,10.4,94,0.01,CLR,,0.86,WeatherDisplay:10.37,2013-05-28 21:08:00,
2013-05-28 17:13:00,75.8,73.3,30.03,East,93,12.0,12.0,92,0.01,CLR,,0.86,WeatherDisplay:10.37,2013-05-28 21:13:00,
2013-05-28 17:18:00,76.3,73.8,30.03,ENE,68,11.5,11.5,92,0.01,CLR,,0.86,WeatherDisplay:10.37,2013-05-28 21:18:00,
2013-05-28 17:23:00,75.7,71.6,30.05,SSE,148,15.0,15.0,87,0.00,CLR,,0.86,WeatherDisplay:10.37,2013-05-28 21:23:00,
2013-05-28 17:28:00,73.6,70.5,30.05,SE,137,21.9,21.9,90,0.06,RA,,0.93,WeatherDisplay:10.37,2013-05-28 21:28:00,
2013-05-28 17:33:00,72.4,69.9,30.05,SSE,167,15.0,15.0,92,0.10,RA,,0.96,WeatherDisplay:10.37,2013-05-28 21:33:00,
2013-05-28 17:38:00,72.2,70.4,30.05,SE,136,13.8,13.8,94,0.13,RA,,0.99,WeatherDisplay:10.37,2013-05-28 21:38:00,
2013-05-28 17:43:00,72.1,70.6,30.04,SSE,151,13.0,13.0,95,0.24,RA,,1.10,WeatherDisplay:10.37,2013-05-28 21:43:00,
2013-05-28 17:48:00,72.0,70.5,30.03,SSE,150,13.8,13.8,95,0.27,RA,,1.13,WeatherDisplay:10.37,2013-05-28 21:48:00,
2013-05-28 17:53:00,71.7,70.2,30.03,SSE,167,11.5,11.5,95,0.28,RA,,1.14,WeatherDisplay:10.37,2013-05-28 21:53:00,
2013-05-28 17:58:00,71.7,70.2,30.03,SE,124,10.4,10.4,95,0.28,RA,,1.14,WeatherDisplay:10.37,2013-05-28 21:58:00,
2013-05-28 18:03:00,71.6,70.1,30.03,SE,128,5.8,5.8,95,0.28,CLR,,1.14,WeatherDisplay:10.37,2013-05-28 22:03:00,
2013-05-28 18:08:00,71.7,70.2,30.04,SE,144,6.9,6.9,95,0.28,CLR,,1.14,WeatherDisplay:10.37,2013-05-28 22:08:00,
2013-05-28 18:13:00,71.8,70.3,30.04,SE,134,9.2,9.2,95,0.28,CLR,,1.14,WeatherDisplay:10.37,2013-05-28 22:13:00,
2013-05-28 18:18:00,71.7,70.2,30.04,South,175,9.2,9.2,95,0.28,CLR,,1.14,WeatherDisplay:10.37,2013-05-28 22:18:00,
2013-05-28 18:23:00,71.8,70.3,30.03,SE,133,9.2,9.2,95,0.28,CLR,,1.14,WeatherDisplay:10.37,2013-05-28 22:23:00,
2013-05-28 18:28:00,71.9,70.4,30.03,SE,141,5.8,5.8,95,0.22,CLR,,1.14,WeatherDisplay:10.37,2013-05-28 22:28:00,
2013-05-28 18:33:00,71.9,70.4,30.03,ESE,113,5.0,5.0,95,0.18,CLR,,1.14,WeatherDisplay:10.37,2013-05-28 22:33:00,
2013-05-28 18:38:00,72.0,70.2,30.03,ESE,115,5.0,5.0,94,0.15,CLR,,1.14,WeatherDisplay:10.37,2013-05-28 22:38:00,
2013-05-28 18:43:00,72.1,70.3,30.03,ESE,107,2.3,2.3,94,0.04,CLR,,1.14,WeatherDisplay:10.37,2013-05-28 22:43:00,
2013-05-28 18:48:00,72.3,70.8,30.03,ENE,77,3.5,3.5,95,0.01,CLR,,1.14,WeatherDisplay:10.37,2013-05-28 22:48:00,
2013-05-28 18:53:00,72.4,70.9,30.03,East,93,3.5,3.5,95,0.00,CLR,,1.14,WeatherDisplay:10.37,2013-05-28 22:53:00,
2013-05-28 18:58:00,72.6,71.1,30.04,East,84,3.5,3.5,95,0.00,CLR,,1.14,WeatherDisplay:10.37,2013-05-28 22:58:00,
2013-05-28 19:03:00,72.7,71.2,30.04,ESE,107,3.5,3.5,95,0.00,CLR,,1.14,WeatherDisplay:10.37,2013-05-28 23:03:00,
2013-05-28 19:08:00,72.7,70.9,30.04,ESE,120,3.5,3.5,94,0.00,CLR,,1.14,WeatherDisplay:10.37,2013-05-28 23:08:00,
2013-05-28 19:13:00,72.9,71.1,30.04,ESE,122,5.0,5.0,94,0.00,CLR,,1.14,WeatherDisplay:10.37,2013-05-28 23:13:00,
2013-05-28 19:18:00,73.0,70.9,30.04,ESE,118,5.8,5.8,93,0.00,CLR,,1.14,WeatherDisplay:10.37,2013-05-28 23:18:00,
2013-05-28 19:23:00,73.2,71.1,30.04,East,90,5.8,5.8,93,0.00,CLR,,1.14,WeatherDisplay:10.37,2013-05-28 23:23:00,
2013-05-28 19:28:00,73.3,71.2,30.04,East,87,4.6,4.6,93,0.00,CLR,,1.14,WeatherDisplay:10.37,2013-05-28 23:28:00,
2013-05-28 19:33:00,73.4,71.3,30.05,East,96,5.8,5.8,93,0.00,CLR,,1.14,WeatherDisplay:10.37,2013-05-28 23:33:00,
2013-05-28 19:38:00,73.5,71.4,30.05,ESE,109,4.6,4.6,93,0.00,CLR,,1.14,WeatherDisplay:10.37,2013-05-28 23:38:00,
2013-05-28 19:43:00,73.5,71.0,30.05,ENE,57,4.0,4.0,92,0.00,CLR,,1.14,WeatherDisplay:10.37,2013-05-28 23:43:00,
2013-05-28 19:48:00,73.5,71.4,30.05,East,95,6.9,6.9,93,0.00,CLR,,1.14,WeatherDisplay:10.37,2013-05-28 23:48:00,
2013-05-28 19:53:00,73.6,71.4,30.05,SE,138,3.5,3.5,93,0.00,CLR,,1.14,WeatherDisplay:10.37,2013-05-28 23:53:00,
2013-05-28 19:58:00,73.9,71.7,30.05,ESE,117,11.0,11.0,93,0.00,CLR,,1.14,WeatherDisplay:10.37,2013-05-28 23:58:00,
2013-05-28 20:03:00,74.2,72.4,30.05,ESE,105,6.9,6.9,94,0.00,CLR,,1.14,WeatherDisplay:10.37,2013-05-29 00:03:00,
2013-05-28 20:08:00,74.4,72.6,30.05,SE,126,6.9,6.9,94,0.00,CLR,,1.14,WeatherDisplay:10.37,2013-05-29 00:08:00,
2013-05-28 20:13:00,74.6,72.4,30.05,ESE,111,10.4,10.4,93,0.00,CLR,,1.14,WeatherDisplay:10.37,2013-05-29 00:13:00,
2013-05-28 20:18:00,74.8,72.3,30.05,SE,137,11.5,11.5,92,0.00,CLR,,1.14,WeatherDisplay:10.37,2013-05-29 00:18:00,
2013-05-28 20:23:00,74.9,72.4,30.05,ESE,105,11.5,11.5,92,0.00,CLR,,1.14,WeatherDisplay:10.37,2013-05-29 00:23:00,
2013-05-28 20:28:00,75.0,72.5,30.05,ESE,109,7.0,7.0,92,0.00,CLR,,1.14,WeatherDisplay:10.37,2013-05-29 00:28:00,
2013-05-28 20:33:00,75.1,72.6,30.05,East,88,13.8,13.8,92,0.00,CLR,,1.14,WeatherDisplay:10.37,2013-05-29 00:33:00,
2013-05-28 20:38:00,75.3,72.2,30.05,SE,130,12.7,12.7,90,0.00,CLR,,1.14,WeatherDisplay:10.37,2013-05-29 00:38:00,
2013-05-28 20:43:00,75.4,72.3,30.04,East,90,11.5,11.5,90,0.00,CLR,,1.14,WeatherDisplay:10.37,2013-05-29 00:43:00,
2013-05-28 20:48:00,75.4,71.6,30.04,ESE,114,12.7,12.7,88,0.00,CLR,,1.14,WeatherDisplay:10.37,2013-05-29 00:48:00,
2013-05-28 20:53:00,75.5,72.0,30.04,ESE,111,11.5,11.5,89,0.00,CLR,,1.14,WeatherDisplay:10.37,2013-05-29 00:53:00,
2013-05-28 20:58:00,75.5,71.7,30.04,SE,125,13.8,13.8,88,0.00,CLR,,1.14,WeatherDisplay:10.37,2013-05-29 00:58:00,
2013-05-28 21:03:00,75.5,71.7,30.04,ESE,123,11.5,11.5,88,0.00,CLR,,1.14,WeatherDisplay:10.37,2013-05-29 01:03:00,
2013-05-28 21:08:00,75.5,71.7,30.04,SE,142,13.8,13.8,88,0.00,CLR,,1.14,WeatherDisplay:10.37,2013-05-29 01:08:00,
2013-05-28 21:13:00,75.5,71.4,30.03,SE,126,11.5,11.5,87,0.00,CLR,,1.14,WeatherDisplay:10.37,2013-05-29 01:13:00,
2013-05-28 21:18:00,75.5,71.4,30.03,SSE,159,11.5,11.5,87,0.00,CLR,,1.14,WeatherDisplay:10.37,2013-05-29 01:18:00,
2013-05-28 21:23:00,75.6,71.5,30.03,SE,130,11.5,11.5,87,0.00,CLR,,1.14,WeatherDisplay:10.37,2013-05-29 01:23:00,
2013-05-28 21:28:00,75.6,71.8,30.03,SE,132,11.5,11.5,88,0.00,CLR,,1.14,WeatherDisplay:10.37,2013-05-29 01:28:00,
2013-05-28 21:33:00,75.7,71.9,30.03,SE,144,13.8,13.8,88,0.00,CLR,,1.14,WeatherDisplay:10.37,2013-05-29 01:33:00,
2013-05-28 21:38:00,75.8,72.0,30.02,SSE,160,13.8,13.8,88,0.00,CLR,,1.14,WeatherDisplay:10.37,2013-05-29 01:38:00,
2013-05-28 21:43:00,75.9,71.8,30.02,SE,145,13.8,13.8,87,0.00,CLR,,1.14,WeatherDisplay:10.37,2013-05-29 01:43:00,
2013-05-28 21:48:00,76.0,71.8,30.03,SE,126,17.3,17.3,87,0.00,CLR,,1.14,WeatherDisplay:10.37,2013-05-29 01:48:00,
2013-05-28 21:53:00,76.0,71.8,30.03,ESE,110,11.5,11.5,87,0.00,CLR,,1.14,WeatherDisplay:10.37,2013-05-29 01:53:00,
2013-05-28 21:58:00,76.2,72.0,30.03,SE,130,13.8,13.8,87,0.00,CLR,,1.14,WeatherDisplay:10.37,2013-05-29 01:58:00,
2013-05-28 22:03:00,76.2,71.7,30.04,East,92,13.8,13.8,86,0.00,CLR,,1.14,WeatherDisplay:10.37,2013-05-29 02:03:00,
2013-05-28 22:08:00,76.2,71.7,30.04,SE,138,12.7,12.7,86,0.00,CLR,,1.14,WeatherDisplay:10.37,2013-05-29 02:08:00,
2013-05-28 22:13:00,76.2,71.7,30.04,ESE,117,12.7,12.7,86,0.00,CLR,,1.14,WeatherDisplay:10.37,2013-05-29 02:13:00,
2013-05-28 22:18:00,76.2,71.7,30.04,ESE,118,11.5,11.5,86,0.00,CLR,,1.14,WeatherDisplay:10.37,2013-05-29 02:18:00,
2013-05-28 22:23:00,76.3,71.8,30.05,SE,125,12.7,12.7,86,0.00,CLR,,1.14,WeatherDisplay:10.37,2013-05-29 02:23:00,
2013-05-28 22:28:00,76.4,71.6,30.05,ESE,123,12.7,12.7,85,0.00,CLR,,1.14,WeatherDisplay:10.37,2013-05-29 02:28:00,
2013-05-28 22:33:00,76.4,71.9,30.05,East,83,9.2,9.2,86,0.00,CLR,,1.14,WeatherDisplay:10.37,2013-05-29 02:33:00,
2013-05-28 22:38:00,76.3,71.5,30.05,ESE,109,11.5,11.5,85,0.00,CLR,,1.14,WeatherDisplay:10.37,2013-05-29 02:38:00,
2013-05-28 22:43:00,76.5,70.9,30.05,ESE,119,11.5,11.5,83,0.00,CLR,,1.14,WeatherDisplay:10.37,2013-05-29 02:43:00,
2013-05-28 22:48:00,76.5,70.6,30.05,SE,126,16.1,16.1,82,0.00,CLR,,1.14,WeatherDisplay:10.37,2013-05-29 02:48:00,
2013-05-28 22:53:00,76.5,70.9,30.05,ESE,115,11.5,11.5,83,0.00,CLR,,1.14,WeatherDisplay:10.37,2013-05-29 02:53:00,
2013-05-28 22:58:00,76.5,71.3,30.05,ENE,78,11.5,11.5,84,0.00,CLR,,1.14,WeatherDisplay:10.37,2013-05-29 02:58:00,
2013-05-28 23:03:00,76.6,71.4,30.06,ESE,107,10.4,10.4,84,0.00,CLR,,1.14,WeatherDisplay:10.37,2013-05-29 03:03:00,
2013-05-28 23:08:00,76.6,71.4,30.06,ENE,70,10.4,10.4,84,0.00,CLR,,1.14,WeatherDisplay:10.37,2013-05-29 03:08:00,
2013-05-28 23:13:00,76.8,71.2,30.06,ESE,104,13.0,13.0,83,0.00,CLR,,1.14,WeatherDisplay:10.37,2013-05-29 03:13:00,
2013-05-28 23:18:00,76.9,71.3,30.06,ENE,71,13.8,13.8,83,0.00,CLR,,1.14,WeatherDisplay:10.37,2013-05-29 03:18:00,
2013-05-28 23:23:00,77.0,71.4,30.06,ENE,78,11.5,11.5,83,0.00,CLR,,1.14,WeatherDisplay:10.37,2013-05-29 03:23:00,
2013-05-28 23:28:00,77.0,71.8,30.06,ENE,75,11.5,11.5,84,0.00,CLR,,1.14,WeatherDisplay:10.37,2013-05-29 03:28:00,
2013-05-28 23:33:00,77.0,71.8,30.06,SE,144,11.5,11.5,84,0.00,CLR,,1.14,WeatherDisplay:10.37,2013-05-29 03:33:00,
2013-05-28 23:38:00,76.9,72.0,30.06,East,98,11.5,11.5,85,0.00,CLR,,1.14,WeatherDisplay:10.37,2013-05-29 03:38:00,
2013-05-28 23:43:00,76.9,71.7,30.06,ENE,72,13.0,13.0,84,0.00,CLR,,1.14,WeatherDisplay:10.37,2013-05-29 03:43:00,
2013-05-28 23:48:00,76.9,71.7,30.06,East,91,9.2,9.2,84,0.00,CLR,,1.14,WeatherDisplay:10.37,2013-05-29 03:48:00,
2013-05-28 23:53:00,76.9,71.7,30.05,East,96,9.2,9.2,84,0.00,CLR,,1.14,WeatherDisplay:10.37,2013-05-29 03:53:00,
2013-05-28 23:58:00,76.9,71.7,30.05,SE,140,10.4,10.4,84,0.00,CLR,,1.14,WeatherDisplay:10.37,2013-05-29 03:58:00,